Regional Weather Roundup
Issued by NWS

Home | Current Version | Previous Version | Text Only | Print | Product List | Glossary Off
Versions: 1 2 3 4 5 6 7 8 9 10 11 12 13 14 15 16 17 18 19 20 21 22 23 24 25 26 27 28 29 30 31 32 33 34 35 36 37 38 39 40 41 42 43 44 45 46 47 48 49 50

000
ASUS43 KFSD 290902
RWRSD

WEATHER ROUNDUP FOR SOUTH DAKOTA
NATIONAL WEATHER SERVICE SIOUX FALLS SD
400 AM CDT SUN MAY 29 2016

NOTE: "FAIR" INDICATES FEW OR NO CLOUDS BELOW 12,000 FEET WITH NO
SIGNIFICANT WEATHER AND/OR OBSTRUCTIONS TO VISIBILITY.


SDZ001>005-009-010-012>017-291000-
NORTHWEST AND NORTH CENTRAL SOUTH DAKOTA

CITY           SKY/WX    TMP DP  RH WIND       PRES   REMARKS
BUFFALO          N/A     52  41  66 W6        29.98S
FAITH            N/A     49  46  90 SW6       30.02S
MOBRIDGE       CLEAR     52  48  86 CALM      29.96R
$$

SDZ012>016-024>037-041>051-057-063-072>074-291000-
SOUTHWEST AND SOUTH CENTRAL SOUTH DAKOTA

CITY           SKY/WX    TMP DP  RH WIND       PRES   REMARKS
RAPID CTY ARPT CLEAR     48  44  86 NW7       30.06R
PIERRE         CLEAR     53  51  93 SW3       29.97S
CUSTER         CLEAR     39  37  92 NW5       30.13S
ELLSWORTH AFB  CLEAR     49  46  87 W8        30.05R
PHILIP         CLEAR     49  48  97 NW7       30.02R
PINE RIDGE     CLEAR     38  36  92 CALM      30.07S
WINNER         FAIR      57  51  80 SW7       30.00S
$$

SDZ004>011-016>023-039-040-291000-
NORTHEAST SOUTH DAKOTA

CITY           SKY/WX    TMP DP  RH WIND       PRES   REMARKS
ABERDEEN       CLEAR     58  53  84 NW12      29.93S
WATERTOWN      CLOUDY    55  54  96 W3        29.93S
BROOKINGS      CLOUDY    58  57  97 W5        29.94S
SISSETON         N/A     57  55  93 N6        29.89R
$$

SDZ017-020-022-023-036>040-048>070-291000-
SOUTHEAST SOUTH DAKOTA

CITY           SKY/WX    TMP DP  RH WIND       PRES   REMARKS
SIOUX FALLS    MOCLDY    56  55  97 W3        29.96R
HURON          CLEAR     56  54  93 W7        29.95R
MITCHELL       CLOUDY    61  58  90 W8        29.97R
YANKTON        CLOUDY    57  55  94 SW7       29.96F
$$

ABBREVIATIONS USED IN REMARKS
   TC - TEMPERATURE IN CELSIUS
  WCI - WIND CHILL INDEX
   HX - HEAT INDEX
  VSB - VISIBILITY





USA.gov is the U.S. government's official web portal to all federal, state and local government web resources and services.